Regional Weather Roundup
Issued by NWS

Home | Current Version | Previous Version | Graphics & Text | Print | Product List | Glossary On
Versions: 1 2 3 4 5 6 7 8 9 10 11 12 13 14 15 16 17 18 19 20 21 22 23 24 25 26 27 28 29 30 31 32 33 34 35 36 37 38 39 40 41 42 43 44 45 46 47 48 49 50
000
ASUS45 KTFX 220504
RWRMT
MONTANA HOURLY WEATHER ROUNDUP
NATIONAL WEATHER SERVICE GREAT FALLS MT
1104 PM MDT SUN SEP 21 2014

NOTE: "FAIR" INDICATES FEW OR NO CLOUDS BELOW 12000 FEET WITH NO
SIGNIFICANT WEATHER AND/OR OBSTRUCTIONS TO VISIBILITY.

* THESE STATIONS ARE NOT UNDER NWS QUALITY CONTROL. THEY DO NOT
   REPORT WEATHER SUCH AS PRECIPITATION OR FOG.

MTZ001>007-043-220600-
WEST OF THE DIVIDE
CITY           SKY/WX    TMP DP  RH WIND       PRES   REMARKS
KALISPELL      PTCLDY    52  45  77 CALM      29.94F
MISSOULA       PTCLDY    63  43  48 W3        29.96F
BUTTE          MOCLDY    55  43  64 CALM      30.13F
MULLAN PASS    MOCLDY    64  37  37 NW5       30.13F
* ESSEX        N/A       56  45  67 SE6        N/A
* LINCOLN      N/A       53  39  59 NW1        N/A
* POLSON       N/A       62  41  46 SE2        N/A
* RONAN APT    MOCLDY    54  45  72 N/A        N/A
* SEELEY LAKE  N/A       51  37  59 NE2        N/A
* THOMP F APT  MOCLDY    56  46  69 S2         N/A
$$

MTZ008-052>055-220600-
SOUTHWEST MONTANA
CITY           SKY/WX    TMP DP  RH WIND       PRES   REMARKS
BOZEMAN        MOCLDY    57  46  67 NW5       30.09S
DILLON         MOCLDY    57  43  60 S6        30.11S
W YELLOWSTONE  CLOUDY    59  43  56 SW9       30.23S
* THREE FORKS  MOCLDY    55  55 100 N/A        N/A
* BOULDER HILL N/A       58  37  46 S3         N/A
* MONIDA PASS  N/A       57  45  64 SE13       N/A
* RAYNOLDS PAS N/A       56  35  45 SE7        N/A
* WHITEHALL    N/A       61  44  54 E2G11      N/A
* WISE RIVER   N/A       56  35  45 SW3        N/A
$$

MTZ009>010-012-014-046-048-049-054-220600-
EAST SLOPES AND CENTRAL MONTANA
CITY           SKY/WX    TMP DP  RH WIND       PRES   REMARKS
CUT BANK       PTCLDY    55  43  64 S7        30.02F
GREAT FALLS    PTCLDY    64  45  50 S13       30.00F
HELENA         PTCLDY    61  45  56 W5        30.04S
MALMSTROM AFB  CLEAR     57  46  67 S5        30.02F
* CONRAD       PTCLDY    48  45  89 N/A        N/A
* EAST GLACIER N/A       52  44  74 NW8        N/A
* MONARCH      N/A       59  39  48 S12G17     N/A
* PENDROY      N/A       58  47  67 SW6        N/A
* ROGERS PASS  N/A       60  40  48 NW3        N/A
* SAINT MARY   N/A       47  40  77 SE3        N/A
* SWEET GRASS  N/A       59  43  56 S19        N/A
$$

MTZ011-013-016-021-035-040-045-047-050-051-220600-
NORTH CENTRAL MONTANA
CITY           SKY/WX    TMP DP  RH WIND       PRES   REMARKS
HAVRE          CLEAR     57  45  64 E9        29.99F
LEWISTOWN      PTCLDY    57  43  60 SE7       30.08F
* CHESTER      N/A       63  44  50 SE8G13     N/A
* DENTON       N/A       58  41  53 SE10       N/A
* GEYSER       N/A       49  45  86 SW9        N/A
* JUDITH GAP   N/A       54  43  67 SW8        N/A
* LOMA         N/A       63  46  54 NE9        N/A
$$

MTZ017>020-022>027-061-062-220600-
NORTHEAST MONTANA
CITY           SKY/WX    TMP DP  RH WIND       PRES   REMARKS
GLASGOW        CLEAR     55  37  51 E12       30.08F
JORDAN         CLEAR     55  39  55 E7        30.09F
SIDNEY         CLEAR     45  36  71 CALM      30.17S
WOLF POINT     CLEAR     50  37  61 NE5       30.12F
* BEAVER HILL  N/A       56  34  44 SE14       N/A
* CIRCLE       N/A       54  40  59 N/A        N/A
* LINDSAY DVD  N/A       51  34  52 E4         N/A
$$

MTZ028>042-056>058-220600-
SOUTHCENTRAL AND SOUTHEAST MONTANA
CITY           SKY/WX    TMP DP  RH WIND       PRES   REMARKS
BAKER          CLEAR     46  36  68 SE6       30.18F
BILLINGS       MOCLDY    61  43  52 N3        30.07F
LIVINGSTON     MOCLDY    59  45  60 CALM      30.12S
MILES CITY     PTCLDY    63  36  37 SE9       30.11F
* LAUREL APT   MOCLDY    63  39  41 N5         N/A
* ROUNDUP APT  PTCLDY    61  43  52 N/A        N/A
* ALZADA       N/A       55  36  49 NE8        N/A
* HYSHAM       N/A       65  40  40 SE6        N/A
* LAME DEER    N/A       63  39  41 SE11       N/A
* REED POINT   N/A       52  46  80 N/A        N/A
* ROSCOE HILL  N/A       58  39  49 SW4        N/A
$$

REGIONAL REPORTS...DAKOTAS
CITY           SKY/WX    TMP DP  RH WIND       PRES   REMARKS
WILLISTON      CLEAR     45  37  74 CALM      30.15F
DICKINSON      CLEAR     45  36  71 S8        30.19S
BEACH          N/A       48  34  59 SE5       30.18F
CROSBY         CLEAR     52  41  66 S10       30.14F
TIOGA          CLEAR     45  37  74 CALM      30.19F
WATFORD CITY   HAZE      45  37  74 CALM      30.15F
BISMARCK       CLEAR     48  43  83 E3        30.21S
GRAND FORKS    CLEAR     50  48  93 S8        30.17F
FARGO          CLEAR     54  48  80 S7        30.21S
BUFFALO SD     PTCLDY    52  37  57 SE10      30.14F
RAPID CITY     PTCLDY    54  37  53 S5        30.24F
$$

REGIONAL REPORTS...WYOMING/IDAHO/WASHINGTON
CITY           SKY/WX    TMP DP  RH WIND       PRES   REMARKS
GILLETTE       MOCLDY    61  37  41 S23G30    30.19F
SHERIDAN       MOCLDY    64  45  50 SE6       30.10F
CODY           CLOUDY   N/A N/A N/A N/A        N/A
YELLOWSTONE LA CLOUDY    50  45  83 CALM      30.33S
SALMON         MOCLDY    61  46  58 CALM      30.00S
MULLAN PASS    MOCLDY    64  37  37 NW5       30.13S
SAND POINT     CLEAR     54  50  86 CALM      29.91S
SPOKANE        PTCLDY    64  39  40 SW5       29.90S

$$



USA.gov is the U.S. government's official web portal to all federal, state and local government web resources and services.